Regional Weather Roundup
Issued by NWS Midland/Odessa, TX

Skip options and go directly to product.
Home | Oldest Version | Previous Version | Current Version | All | Graphics & Text | Save Text | Print | Product List | Glossary On

Skip product version selection by date and time.   
194
ASUS44 KMAF 051501
RWRMAF
MIDLAND AREA WEATHER ROUNDUP
NATIONAL WEATHER SERVICE MIDLAND TX
1000 AM CDT SUN JUL 05 2015

...IN SOUTHWEST TEXAS AND SOUTHEAST NEW MEXICO...

CITY           SKY/WX    TMP DP  RH WIND       PRES   REMARKS
ALPINE         PTSUNNY   79  62  56 S10       30.19S
ANDREWS        PTSUNNY   77  67  71 S8        30.07R
ARTESIA        MOSUNNY   77  66  69 S13       30.06S
BIG SPRING     SUNNY     79  66  63 S15       30.07S
CARLSBAD       MOSUNNY   78  65  63 SE10      30.04R
DRYDEN           N/A     79  68  69 SE3       30.03R
FORT STOCKTON  SUNNY     82  66  58 SE9       30.04R
GUAD PASS      SUNNY     75  62  64 SW13      30.19R
HOBBS          MOSUNNY   75  66  73 SE9       30.09R
MARFA          PTSUNNY  N/A N/A N/A S6        30.19R
MIDLAND AIRPK  SUNNY     79  67  66 S10       30.06R
MIDLAND INTL   MOSUNNY   79  67  66 S15       30.05S
ODESSA         MOSUNNY   78  66  66 S16       30.06R
PECOS          SUNNY     80  64  56 CALM      30.00S
PRESIDIO       NOT AVBL
SEMINOLE       PTSUNNY   76  66  69 S12       30.08S
SNYDER         MOSUNNY   77  69  75 S15       30.06S
WINK           SUNNY     81  67  62 SE13      30.01S
$$
...OTHER STATIONS IN TEXAS...

CITY           SKY/WX    TMP DP  RH WIND       PRES   REMARKS
ABILENE        SUNNY     82  69  64 S18       30.04F
AMARILLO       SUNNY     79  65  62 S18G25    30.06S
AUSTIN         CLOUDY    79  74  84 S12       30.07S
BROWNSVILLE    PTSUNNY   86  76  71 SE23G31   30.04R
CORPUS CHRISTI PTSUNNY   86  74  67 S18       30.04R
DALLAS FTW     MOSUNNY   85  72  65 S15       30.03S
DEL RIO        PTSUNNY   80  69  69 SE9G18    30.01R
EL PASO        MOSUNNY   78  64  61 W5        30.08R
HOUSTON INT    MOSUNNY   86  75  69 S8        30.08R
LUBBOCK        MOSUNNY   78  67  68 S14       30.06F
SAN ANGELO     SUNNY     81  69  67 S12       30.04S
SAN ANTONIO    PTSUNNY   80  73  79 S10       30.08S
WACO           MOSUNNY   84  72  67 S21       30.06S
WICHITA FALLS  NOT AVBL
$$
...OTHER LOCATIONS IN NEW MEXICO...

CITY           SKY/WX    TMP DP  RH WIND       PRES   REMARKS
ALAMAGORDO     SUNNY     77  59  53 S9        30.10S
ALBUQUERQUE    PTSUNNY   73  57  57 SW6       30.16S
CANNON AFB     SUNNY     77  64  65 S8        30.09S
CLOVIS         SUNNY     75  63  64 S13         N/A
HOLLOMAN AFB   SUNNY     78  60  53 VRB6      30.07S
ROSWELL        MOSUNNY   78  63  59 S10       30.05S
RUIDOSO        PTSUNNY   68  54  60 CALM      30.27S
SANTA FE       MOSUNNY   70  55  59 S5        30.20S
TRUTH OR CONSE PTSUNNY   73  62  68 CALM      30.13R
TUCUMCARI      SUNNY     81  62  52 SW16G26   30.03F
$$

USA.gov is the U.S. government's official web portal to all federal, state and local government web resources and services.